[[{"header":{"parameterUnit":"m.s-1","parameterCategory":1,"la1":30.2991,"la2":30.254,"lo1":-89.0895,"lo2":-89.0444,"dy":0.0017,"dx":0.0017,"nx":28,"ny":28,"refTime":"2024-02-25T09:00:00:Z","depth":0,"parameterNumber":2,"parameterNumberName":"U-component_of_WINDS"},"data":[0,0,0,0,0,0,0,0,0,0,0,0,0,0,0,0,0,0,0,0,0,0,0,0,0,0,0,0,0,0,0,0,0,0,0,0,0,0,0,0,0,0,0,0,0,0,0,0,0,0,0,0,0,0,0,0,0,0,-2.659,-2.659,0,-2.6643,-2.6643,-2.6644,-2.6604,-2.6602,-2.6601,-2.6599,-2.6656,-2.6659,-2.6662,0,0,0,0,0,0,0,0,0,0,0,0,0,-2.6458,-2.646,-2.659,-2.659,-2.6591,-2.6643,-2.6643,-2.6644,-2.6604,-2.6602,-2.66,-2.6598,-2.6655,-2.6658,-2.6662,0,0,0,0,0,0,0,0,0,0,0,0,0,-2.6513,-2.6461,-2.6589,-2.6577,-2.6577,-2.6642,-2.6643,-2.6644,-2.6605,-2.6602,-2.66,-2.6597,-2.6653,-2.6658,-2.6663,-2.6744,0,0,-2.6677,-2.6679,0,0,0,0,0,0,0,0,-2.651,-2.6518,-2.6578,-2.6578,-2.6578,-2.6614,-2.6617,-2.6678,-2.6606,-2.6594,-2.6599,-2.6596,-2.6644,-2.6649,-2.6665,-2.6746,-2.6749,-2.6677,-2.668,-2.6682,-2.6684,0,0,0,0,0,0,0,-2.6506,-2.6516,-2.6611,-2.6579,-2.6579,-2.657,-2.6575,-2.6629,-2.6633,-2.6595,-2.6592,-2.6599,-2.6643,-2.6661,-2.6666,-2.675,-2.6677,-2.6681,-2.6684,-2.6686,-2.6903,-2.6906,0,0,0,0,0,0,-2.6503,-2.6513,-2.6609,-2.6612,-2.6537,-2.6575,-2.6581,-2.6605,-2.6633,-2.6634,-2.6601,-2.6597,-2.6654,-2.6661,-2.6668,-2.6766,-2.6682,-2.6687,-2.6689,-2.69,-2.6903,-2.6907,0,0,0,0,0,0,-2.6501,-2.6512,-2.6607,-2.6562,-2.6573,-2.658,-2.6608,-2.6608,-2.6625,-2.6637,-2.6638,-2.6618,-2.6652,-2.6661,-2.6726,-2.6767,-2.6689,-2.6693,-2.6896,-2.6901,-2.6905,-2.6962,0,0,0,0,0,0,-2.6497,-2.6511,-2.6541,-2.6563,-2.6576,-2.6662,-2.661,-2.661,-2.6633,-2.6628,-2.6653,-2.6655,-2.6651,-2.6719,-2.673,-2.6772,-2.6697,-2.6893,-2.6898,-2.6904,-2.6956,-2.6968,-2.6978,0,0,0,0,0,-2.6492,-2.6555,-2.6543,-2.6555,-2.6613,-2.6665,-2.6672,-2.6666,-2.6636,-2.6667,-2.6675,-2.6654,-2.6761,-2.6726,-2.6738,-2.6782,-2.689,-2.6897,-2.6903,-2.6952,-2.6966,-2.6977,0,0,0,0,0,0,-2.6538,-2.6558,-2.6544,-2.6616,-2.6639,-2.6658,-2.6696,-2.6681,-2.6713,-2.6707,-2.6699,-2.6705,-2.6773,-2.6784,-2.6744,-2.6864,-2.6821,-2.683,-2.6854,-2.6867,-2.6877,-2.6873,-2.6701,0,0,0,0,0,-2.6557,-2.6597,-2.6612,-2.6673,-2.6686,-2.6689,-2.6712,-2.6705,-2.6729,-2.6739,-2.6752,-2.6777,-2.6816,-2.6842,-2.6879,-2.6958,-2.6964,-2.6995,-2.7006,-2.7014,-2.7023,-2.7067,-2.7082,-2.6928,-2.6928,-2.6928,0,0,-2.6595,-2.6611,-2.6636,-2.6683,-2.67,-2.6743,-2.6698,-2.6744,-2.6776,-2.6746,-2.6807,-2.6818,-2.6846,-2.6918,-2.6951,-2.693,-2.7067,-2.7023,-2.703,-2.7033,-2.7076,-2.709,-2.7103,-2.6933,-2.6932,-2.6931,0,0,-2.6687,-2.6703,-2.6756,-2.6775,-2.6802,-2.6804,-2.6817,-2.6839,-2.6845,-2.6907,-2.6886,-2.6924,-2.6992,-2.7013,-2.7033,-2.7136,-2.7118,-2.7148,-2.7203,-2.7247,-2.7259,-2.7269,-2.7307,-2.7321,-2.7156,-2.7156,-2.7157,0,-2.6732,-2.6794,-2.6786,-2.6834,-2.6856,-2.6832,-2.6887,-2.6906,-2.6944,-2.696,-2.6936,-2.7022,-2.7038,-2.7116,-2.7142,-2.7158,-2.7174,-2.7145,-2.7258,-2.7268,-2.7278,-2.7314,-2.7328,-2.716,-2.716,-2.7159,-2.7159,0,-2.6848,-2.6892,-2.6932,-2.6969,-2.6996,-2.7048,-2.7049,-2.7077,-2.7069,-2.7075,-2.7139,-2.7159,-2.72,-2.7218,-2.7211,-2.7296,-2.7282,-2.7258,-2.7215,-2.7296,-2.733,-2.7344,-2.7165,-2.7164,-2.7163,-2.7162,0,0,-2.6968,-2.7002,-2.7017,-2.7035,-2.7064,-2.7098,-2.715,-2.719,-2.7215,-2.7243,-2.7287,-2.7346,-2.7324,-2.7347,-2.7342,-2.738,-2.7462,-2.7351,-2.7352,-2.7372,-2.7559,-2.7577,-2.7593,-2.7451,-2.7453,-2.7455,-2.7557,0,-2.7062,-2.7151,-2.7147,-2.7231,-2.7272,-2.725,-2.7296,-2.732,-2.7327,-2.7364,-2.7373,-2.7415,-2.7383,-2.7397,-2.7434,-2.7444,-2.75,-2.7437,-2.7493,-2.7495,-2.7486,-2.761,-2.7629,-2.7724,-2.757,-2.7572,-2.7574,0,-2.7182,-2.7215,-2.7303,-2.7327,-2.7345,-2.7385,-2.7423,-2.7458,-2.7486,-2.7489,-2.7515,-2.7504,-2.7559,-2.7515,-2.7591,-2.7548,-2.7571,-2.758,-2.7584,-2.7589,-2.7539,-2.7619,-2.7754,-2.7768,-2.7594,-2.7593,-2.7591,0,-2.7262,-2.7328,-2.7389,-2.7405,-2.7435,-2.7464,-2.7479,-2.7503,-2.7529,-2.7562,-2.7579,-2.7618,-2.764,-2.7672,-2.7673,-2.7641,-2.7751,-2.7706,-2.7755,-2.7756,-2.7779,-2.7777,-2.7919,-2.7794,-2.7794,-2.7793,-2.7793,0,-2.7367,-2.7422,-2.7426,-2.7463,-2.7525,-2.7521,-2.7582,-2.7594,-2.7617,-2.7658,-2.7642,-2.7681,-2.768,-2.7721,-2.7722,-2.7786,-2.7796,-2.7801,-2.78,-2.7802,-2.7801,-2.7816,-2.781,-2.7797,-2.7796,-2.7796,-2.7795,0,-2.7466,-2.747,-2.7536,-2.756,-2.7568,-2.7612,-2.7633,-2.767,-2.7677,-2.7729,-2.7741,-2.7753,-2.7799,-2.7804,-2.7859,-2.786,-2.7937,-2.7929,-2.7927,-2.7926,-2.7975,-2.797,-2.8132,-2.8153,-2.8014,-2.8015,-2.8016,0,-2.7532,-2.7574,-2.7603,-2.7629,-2.7645,-2.7687,-2.7713,-2.7712,-2.7739,-2.7775,-2.7808,-2.7854,-2.789,-2.7966,-2.798,-2.8022,-2.8016,-2.807,-2.8022,-2.8023,-2.8018,-2.8015,-2.802,-2.8079,-2.808,-2.8082,-2.8083,0,-2.765,-2.7651,-2.7688,-2.7727,-2.7759,-2.7789,-2.7818,-2.7841,-2.7843,-2.7876,-2.7924,-2.7952,-2.8008,-2.8054,-2.8096,-2.8112,-2.8099,-2.8098,-2.8112,-2.8113,-2.811,-2.8113,-2.7952,-2.8094,-2.8093,-2.8092,-2.8091,-2.8091,-2.7735,-2.7771,-2.7798,-2.7841,-2.7863,-2.7891,-2.7927,-2.7939,-2.7979,-2.8024,-2.8021,-2.8074,-2.8103,-2.8158,-2.8178,-2.8221,-2.8203,-2.8223,-2.8228,-2.8232,-2.8238,-2.8104,-2.8228,-2.8228,-2.8228,-2.8228,-2.8227,0,-2.7852,-2.7868,-2.7908,-2.7949,-2.7984,-2.7968,-2.8,-2.803,-2.8077,-2.8104,-2.8141,-2.8197,-2.8242,-2.826,-2.8305,-2.8336,-2.8331,-2.8348,-2.8345,-2.8349,-2.8251,-2.8234,-2.8351,-2.8351,-2.8351,-2.8351,-2.8351,-2.8351,-2.7917,-2.7978,-2.7983,-2.8057,-2.8073,-2.8124,-2.8144,-2.8171,-2.8193,-2.8256,-2.8294,-2.8305,-2.833,-2.8377,-2.8418,-2.8423,-2.844,-2.846,-2.8461,-2.8369,-2.8356,-2.8344,-2.8329,-2.8463,-2.8464,-2.8557,-2.8557,-2.8558]},{"header":{"parameterUnit":"m.s-1","parameterCategory":1,"la1":30.2991,"la2":30.254,"lo1":-89.0895,"lo2":-89.0444,"dy":0.0017,"dx":0.0017,"nx":28,"ny":28,"refTime":"2024-02-25T09:00:00:Z","depth":0,"parameterNumber":3,"parameterNumberName":"V-component_of_WINDS"},"data":[0,0,0,0,0,0,0,0,0,0,0,0,0,0,0,0,0,0,0,0,0,0,0,0,0,0,0,0,0,0,0,0,0,0,0,0,0,0,0,0,0,0,0,0,0,0,0,0,0,0,0,0,0,0,0,0,0,0,1.614,1.614,0,1.6142,1.6142,1.6142,1.6129,1.6129,1.6129,1.6128,1.6127,1.6128,1.6128,0,0,0,0,0,0,0,0,0,0,0,0,0,1.6124,1.6125,1.614,1.614,1.614,1.6142,1.6142,1.6142,1.6129,1.6129,1.6129,1.6128,1.6127,1.6128,1.6128,0,0,0,0,0,0,0,0,0,0,0,0,0,1.6129,1.6125,1.614,1.6134,1.6134,1.6142,1.6142,1.6142,1.6129,1.6129,1.6128,1.6128,1.6127,1.6128,1.6128,1.6141,0,0,1.6129,1.613,0,0,0,0,0,0,0,0,1.6129,1.613,1.6135,1.6135,1.6134,1.6135,1.6136,1.6142,1.613,1.6131,1.6128,1.6128,1.613,1.613,1.6132,1.6141,1.6141,1.6129,1.613,1.613,1.613,0,0,0,0,0,0,0,1.6129,1.613,1.6141,1.6135,1.6135,1.6131,1.6131,1.6137,1.6133,1.6131,1.613,1.613,1.613,1.6131,1.6132,1.6141,1.6129,1.613,1.613,1.613,1.6163,1.6164,0,0,0,0,0,0,1.6129,1.6129,1.6141,1.6141,1.613,1.6132,1.6132,1.6135,1.6133,1.6133,1.6131,1.613,1.6131,1.6131,1.6132,1.6148,1.613,1.613,1.6131,1.6162,1.6163,1.6164,0,0,0,0,0,0,1.6129,1.613,1.6141,1.6135,1.6136,1.6133,1.6136,1.6135,1.6137,1.6133,1.6132,1.6133,1.613,1.6131,1.6139,1.6147,1.6131,1.6131,1.6162,1.6163,1.6163,1.618,0,0,0,0,0,0,1.6129,1.613,1.6136,1.6135,1.6136,1.6149,1.6137,1.6136,1.6138,1.6137,1.6135,1.6135,1.613,1.6139,1.614,1.6148,1.6131,1.6161,1.6162,1.6163,1.6178,1.6181,1.6183,0,0,0,0,0,1.6128,1.6139,1.6136,1.6137,1.6143,1.6149,1.615,1.6145,1.6139,1.6144,1.6142,1.6135,1.6147,1.614,1.6141,1.6149,1.616,1.6162,1.6163,1.6177,1.618,1.6183,0,0,0,0,0,0,1.6139,1.6139,1.6135,1.6147,1.6148,1.6147,1.6153,1.6149,1.6151,1.615,1.6143,1.6143,1.6153,1.6152,1.6144,1.6162,1.6152,1.6154,1.6163,1.6166,1.6168,1.6168,1.6132,0,0,0,0,0,1.6143,1.6149,1.6148,1.6159,1.616,1.6157,1.6159,1.6156,1.6157,1.6157,1.6156,1.6156,1.616,1.6163,1.6166,1.6178,1.6178,1.6185,1.6187,1.6189,1.619,1.6198,1.6201,1.6168,1.6168,1.6168,0,0,1.6151,1.6152,1.6156,1.6161,1.6162,1.6168,1.6157,1.6164,1.6168,1.6158,1.6166,1.6165,1.6166,1.6177,1.6181,1.6176,1.62,1.6191,1.6192,1.6193,1.6199,1.6202,1.6205,1.6169,1.6169,1.6169,0,0,1.6169,1.617,1.6179,1.6181,1.6183,1.6181,1.6183,1.6183,1.6183,1.6191,1.6184,1.6189,1.6196,1.6197,1.6198,1.6218,1.6212,1.6219,1.6232,1.6239,1.6242,1.6244,1.6252,1.6254,1.6221,1.6221,1.6221,0,1.6178,1.6187,1.6184,1.6192,1.6194,1.6187,1.6196,1.6198,1.62,1.6202,1.6197,1.6206,1.6206,1.6217,1.6222,1.6223,1.6226,1.6219,1.6242,1.6244,1.6246,1.6253,1.6256,1.6222,1.6222,1.6222,1.6222,0,1.6199,1.6206,1.6213,1.6218,1.6221,1.623,1.6227,1.6231,1.6228,1.6226,1.6236,1.6235,1.6239,1.6242,1.6238,1.6253,1.625,1.6243,1.6233,1.625,1.6257,1.626,1.6223,1.6223,1.6223,1.6222,0,0,1.6222,1.6226,1.6229,1.6232,1.6234,1.6239,1.6248,1.6253,1.6256,1.6259,1.6266,1.6273,1.6267,1.6269,1.6265,1.6271,1.6288,1.6264,1.6264,1.6269,1.6306,1.6311,1.6314,1.6284,1.6285,1.6285,1.6306,0,1.624,1.6255,1.6253,1.6268,1.6275,1.6268,1.6276,1.6278,1.6278,1.6283,1.6282,1.6287,1.6279,1.628,1.6286,1.6285,1.6296,1.6283,1.629,1.6291,1.6291,1.6317,1.6322,1.6342,1.6308,1.6309,1.6309,0,1.6262,1.6267,1.6283,1.6286,1.6289,1.6296,1.6301,1.6306,1.6309,1.6308,1.6311,1.6307,1.6315,1.6305,1.6316,1.6308,1.6311,1.6311,1.6312,1.6312,1.6301,1.6319,1.6348,1.6351,1.6313,1.6313,1.6313,0,1.6278,1.6289,1.63,1.6303,1.6306,1.6311,1.6313,1.6315,1.6319,1.6323,1.6326,1.6331,1.6333,1.6337,1.6334,1.6327,1.6346,1.6335,1.6345,1.6345,1.6349,1.6349,1.6379,1.6351,1.6351,1.6351,1.6351,0,1.6298,1.6308,1.6308,1.6315,1.6326,1.6324,1.6334,1.6335,1.6338,1.6344,1.6339,1.6345,1.6341,1.6347,1.6345,1.6355,1.6356,1.6355,1.6354,1.6356,1.6356,1.6357,1.6356,1.6352,1.6352,1.6351,1.6351,0,1.6318,1.6318,1.633,1.6333,1.6335,1.6343,1.6345,1.6352,1.6351,1.636,1.6362,1.6361,1.6368,1.6366,1.6372,1.6371,1.6384,1.6381,1.6384,1.6383,1.6393,1.6392,1.6425,1.643,1.6399,1.6399,1.6399,0,1.633,1.6338,1.6343,1.6348,1.6351,1.6358,1.6363,1.6361,1.6365,1.637,1.6376,1.6383,1.6388,1.6399,1.6399,1.6404,1.6402,1.6413,1.6402,1.6404,1.6402,1.6402,1.6403,1.6415,1.6415,1.6416,1.6416,0,1.6353,1.6354,1.636,1.6368,1.6374,1.6379,1.6384,1.6388,1.6386,1.6392,1.64,1.6404,1.6412,1.6419,1.6424,1.6425,1.642,1.6419,1.6422,1.6423,1.6424,1.6424,1.639,1.6418,1.6418,1.6418,1.6418,1.6418,1.637,1.6377,1.6382,1.6391,1.6395,1.64,1.6406,1.6408,1.6415,1.6422,1.642,1.6429,1.6433,1.644,1.6442,1.6448,1.6444,1.6447,1.6448,1.6449,1.6451,1.6424,1.6449,1.6449,1.6449,1.6449,1.6449,0,1.6393,1.6396,1.6404,1.6412,1.6419,1.6415,1.6421,1.6426,1.6435,1.6439,1.6445,1.6454,1.6461,1.6462,1.6469,1.6474,1.6472,1.6476,1.6475,1.6476,1.6454,1.6452,1.6477,1.6477,1.6477,1.6477,1.6477,1.6477,1.6405,1.6418,1.6419,1.6434,1.6437,1.6447,1.645,1.6455,1.6459,1.647,1.6476,1.6477,1.648,1.6487,1.6494,1.6494,1.6496,1.6501,1.65,1.648,1.6477,1.6474,1.6472,1.6502,1.6502,1.6521,1.6522,1.6522]}]]